Weather in Plodopitomnik

Russia / Amur Oblast     50°18′23″N   127°29′22″E
temp.,
°C
wind,
m/s
gust,
m/s
humid.,
%
clouds,
%
prec.,
mm/h
press.,
hPa
HPBL,
m
18 may, wed
wed1800:00+7w11390 0.0 100910
03:00+6w22405 0.0 100915
06:00+7w22415 0.0 101029
09:00+16ssw352339 0.0 1009835
12:00+20ssw462295 0.0 10072913
15:00+22sw6722100 0.0 10053347
18:00+22sw4827100 0.0 10032151
21:00+14wsw2261100 0.4 100425
19 may, thu
thu1900:00+12w3561100 0.0 100360
03:00+13nnw51349100 0.1 1004409
06:00+11wnw2106550 0.2 1006365
09:00+16n68455 0.2 10071213
12:00+19nnw68260 0.0 10072399
15:00+21n682251 0.0 10062714
18:00+21n482147 0.0 10052488
21:00+14ese3334100 0.0 100638
20 may, fri
fri2000:00+12sse3104196 0.0 1005190
03:00+11se3749100 0.0 1004173
06:00+12s51050100 0.0 1001330
09:00+19wsw3640100 0.1 998711
12:00+24nw3633100 0.0 9972150
15:00+17ese3768100 0.8 995132
18:00+16wnw687598 8.4 997428
21:00+13nw61480100 11.6 999633
21 may, sat
sat2100:00+11nw510880 0.0 999249
03:00+10nnw6128912 0.0 1001435
06:00+10nnw598697 0.0 1003452
09:00+14n5764100 0.0 1004938
12:00+18n674564 0.0 10042020
15:00+17n685130 0.1 10041134
18:00+16nne6949100 0.0 1005879
21:00+14nw11560 0.0 100611
22 may, sun
sun2200:00+10nw2260100 0.0 100720
03:00+9nw3364100 0.0 100743
06:00+10nw24645 0.0 1008114
09:00+16nne1144100 0.0 1008650
12:00+19s223334 0.0 10061877
15:00+21se453052 0.0 10041906
18:00+19sse7104381 0.0 1002703
21:00+16sse81647100 0.0 1000445